Hourly Data Report for October 11, 2015

All times are specified in Local Standard Time (LST). Add 1 hour to adjust for Daylight Saving Time where and when it is observed.

CLYDE RIVER A
NUNAVUT

70°29'09.000" N
68°31'01.000" W
26.50 m
2400804
71090
YCY

Download Data

Hourly Data (October 2015)
Hourly Data Report for October 11, 2015
Temp Definition
°C
Dew Point Temp Definition
°C
Rel Hum Definition
%
Wind Dir Definition
10's deg

Wind Spd Definition
km/h
Visibility Definition
km
Stn Press Definition
kPa
Hmdx Definition


Wind Chill Definition


Weather Definition


TIME
00:00 Legend Double Dagger -1.8 -3.1 91 30 21 16.1 100.36   -8 LegendNANA
01:00 Legend Double Dagger -1.8 -3.1 91 30 17 16.1 100.35   -7 Snow
02:00 Legend Double Dagger -2.0 -3.0 93 30 21 9.7 100.32   -8 Snow
03:00 Legend Double Dagger -2.0 -2.8 94 31 17 6.4 100.31   -7 Snow
04:00 Legend Double Dagger -1.9 -2.9 93 30 21 6.4 100.31   -8 Snow
05:00 Legend Double Dagger -1.8 -2.9 92 30 21 16.1 100.31   -8 Snow
06:00 Legend Double Dagger -1.8 -2.8 93 31 22 12.9 100.30   -8 Snow
07:00 Legend Double Dagger -1.6 -2.6 93 30 21 16.1 100.29   -7 Snow
08:00 Legend Double Dagger -1.4 -2.5 92 30 21 14.5 100.28   -7 Snow
09:00 Legend Double Dagger -1.0 -1.8 94 30 21 4.0 100.26   -7 Freezing Rain,Snow
10:00 Legend Double Dagger -1.0 -1.8 94 30 22 4.8 100.24   -7 Snow
11:00 Legend Double Dagger -0.7 -1.6 94 30 22 16.1 100.21   -6 Snow
12:00 Legend Double Dagger -0.5 -1.6 92 31 21 16.1 100.18   -6 LegendNANA
13:00 Legend Double Dagger -0.3 -0.9 96 31 21 4.8 100.15   -6 Fog
14:00 Legend Double Dagger 0.0 -0.6 96 33 21 6.4 100.14   -5 Rain,Fog
15:00 Legend Double Dagger 0.0 -0.3 98 33 18 3.6 100.12   -5 Rain,Fog
16:00 Legend Double Dagger 0.2 -0.1 98 33 17 2.0 100.11     Fog
17:00 Legend Double Dagger 0.2 -0.1 98 33 15 2.4 100.09     Freezing Rain,Fog
18:00 Legend Double Dagger -0.3 -0.4 99 27 5 9.7 100.07   -2 Fog
19:00 Legend Double Dagger -0.6 -1.0 97 31 18 16.1 100.03   -6 LegendNANA
20:00 Legend Double Dagger -0.9 -1.5 96 32 15 16.1 100.04   -6 LegendNANA
21:00 Legend Double Dagger -0.2 -0.3 99 33 17 2.4 100.02   -5 Fog
22:00 Legend Double Dagger -1.1 -1.2 99 32 15 2.8 99.94   -6 Fog
23:00 Legend Double Dagger -0.5 -1.1 96 30 22 16.1 99.91   -6 Snow

Notes on Data Quality.

Legend

  • E = Estimated
  • M = Missing
  • NA = Not Available
  • ‡ = Partner data that is not subject to review by the National Climate Archives
Date modified: